EW7175 Weather Reports


Display with metric or nautical units.
time (UTC)temp
F
wind
direction
speed
MPH
gust
MPH
rain 1hr
in
rain 24hr
in
rain mn
in
humidity
%
barometer
mb
20220126050059 49 26 0.0 1.0 0.00 0.00 0.00 88 1021.9
20220126044729 50 25 0.0 1.0 0.00 0.00 0.00 87 1022.0
20220126043114 51 25 0.0 1.0 0.00 0.00 0.00 86 1022.0
20220126041551 51 58 0.0 4.0 0.00 0.00 0.00 85 1021.7
20220126040058 52 29 1.0 4.0 0.00 0.00 0.00 84 1021.5
20220126034556 53 44 1.0 6.0 0.00 0.00 0.00 83 1021.5
20220126033158 53 44 1.0 5.0 0.00 0.00 0.00 83 1021.3
20220126031611 53 347 0.0 3.0 0.00 0.00 0.00 82 1021.2
20220126030129 53 5 0.0 2.0 0.00 0.00 0.00 82 1020.6
20220126024549 53 57 0.0 4.0 0.00 0.00 0.00 82 1020.2
20220126023028 53 72 1.0 5.0 0.00 0.00 0.00 82 1019.4
20220126021539 53 20 1.0 12.0 0.00 0.00 0.00 83 1019.4
20220126020107 53 64 0.0 10.0 0.00 0.00 0.00 83 1019.4
20220126014602 53 32 3.0 10.0 0.00 0.01 0.00 82 1019.3
20220126013038 53 74 2.0 11.0 0.00 0.01 0.00 84 1019.1
20220126011522 54 21 3.0 10.0 0.00 0.01 0.00 84 1018.9
20220126010107 54 5 2.0 6.0 0.00 0.01 0.00 84 1018.7
20220126004532 54 5 4.0 10.0 0.00 0.02 0.00 84 1018.5
20220126003040 54 347 0.0 5.0 0.00 0.02 0.00 84 1018.4
20220126001529 54 355 0.0 4.0 0.00 0.02 0.00 83 1018.4
20220126000025 54 36 0.0 4.0 0.00 0.02 0.00 83 1018.2
20220125234519 54 360 1.0 8.0 0.00 0.02 0.00 83 1017.9
20220125233022 55 331 2.0 8.0 0.00 0.02 0.00 82 1017.7
20220125231529 55 26 2.0 11.0 0.00 0.02 0.00 81 1017.5
20220125230011 55 319 1.0 4.0 0.00 0.02 0.00 81 1017.3
20220125224514 55 348 2.0 8.0 0.00 0.04 0.00 81 1017.2
20220125223030 55 26 2.0 9.0 0.00 0.04 0.00 81 1017.1
20220125221508 56 339 2.0 8.0 0.00 0.04 0.00 81 1017.0
20220125220008 56 36 3.0 8.0 0.00 0.04 0.00 80 1017.0
20220125214517 56 26 1.0 5.0 0.00 0.05 0.00 81 1016.8
20220125213009 56 9 3.0 10.0 0.00 0.05 0.00 79 1016.7
20220125211528 56 22 1.0 9.0 0.00 0.05 0.00 80 1016.5
20220125210012 56 314 2.0 6.0 0.00 0.05 0.00 80 1016.4
20220125204506 56 34 3.0 10.0 0.00 0.05 0.00 80 1016.3
20220125203006 57 61 0.0 6.0 0.00 0.05 0.00 79 1016.2
20220125201539 57 350 0.0 9.0 0.00 0.05 0.00 79 1016.1
20220125200004 57 5 1.0 8.0 0.00 0.05 0.00 80 1016.0
20220125194502 56 5 2.0 9.0 0.00 0.05 0.00 81 1016.0
20220125193006 56 12 4.0 10.0 0.00 0.05 0.00 80 1016.0
20220125191629 56 24 2.0 8.0 0.00 0.05 0.00 81 1016.1
20220125191500 56 11 2.0 8.0 0.00 0.05 0.00 81 1016.1
20220125190124 56 336 1.0 11.0 0.00 0.05 0.00 82 1016.5
20220125183208 56 16 3.0 8.0 0.00 0.14 0.00 82 1016.8
20220125181638 56 33 1.0 6.0 0.00 0.14 0.00 83 1017.0
20220125180339 55 20 2.0 8.0 0.00 0.14 0.00 83 1017.1
20220125174748 55 348 2.0 11.0 0.00 0.15 0.00 83 1017.2
20220125173140 55 30 4.0 10.0 0.00 0.15 0.00 84 1017.2
20220125171723 55 348 3.0 11.0 0.00 0.15 0.00 85 1017.1
20220125170156 55 360 3.0 12.0 0.00 0.15 0.00 86 1017.3
20220125164610 54 311 2.0 9.0 0.00 0.27 0.00 89 1017.5
20220125163100 53 344 4.0 12.0 0.00 0.27 0.00 90 1017.4
20220125161619 53 355 1.0 5.0 0.00 0.27 0.00 92 1017.3
20220125160120 52 17 2.0 9.0 0.00 0.27 0.00 93 1017.3
20220125154616 51 335 3.0 9.0 0.00 0.34 0.00 93 1016.9
20220125153052 51 11 2.0 10.0 0.00 0.34 0.00 93 1016.7
20220125151606 50 322 4.0 11.0 0.00 0.34 0.00 93 1016.5
20220125150219 49 332 2.0 8.0 0.00 0.34 0.00 93 1016.5
20220125144525 49 302 4.0 8.0 0.00 0.34 0.00 93 1016.3
20220125143026 48 298 1.0 5.0 0.00 0.34 0.00 93 1016.2
20220125141523 48 290 2.0 8.0 0.00 0.34 0.00 93 1016.0
20220125140027 47 308 1.0 5.0 0.00 0.34 0.00 93 1015.9
20220125134512 47 284 1.0 4.0 0.00 0.35 0.00 93 1015.7
20220125133024 46 254 1.0 6.0 0.00 0.35 0.00 93 1015.5
20220125131514 46 282 0.0 4.0 0.00 0.35 0.00 93 1015.1
20220125130002 46 289 1.0 4.0 0.00 0.35 0.00 93 1014.7
20220125124709 46 300 0.0 5.0 0.00 0.44 0.00 93 1014.5
20220125123156 46 295 0.0 2.0 0.00 0.44 0.00 93 1014.6
20220125121556 46 13 0.0 3.0 0.00 0.44 0.00 93 1014.4
20220125120146 46 309 0.0 3.0 0.00 0.44 0.00 93 1014.1
20220125114619 46 288 0.0 3.0 0.00 0.44 0.00 93 1013.7
20220125113153 45 311 0.0 2.0 0.00 0.44 0.00 93 1013.3
20220125111623 45 276 0.0 2.0 0.00 0.44 0.00 93 1013.2
20220125110122 45 239 0.0 1.0 0.00 0.44 0.00 93 1013.1
20220125104612 45 13 0.0 0.0 0.00 0.44 0.00 93 1012.8
20220125103120 45 13 0.0 1.0 0.00 0.44 0.00 93 1012.5
20220125101630 44 309 0.0 2.0 0.00 0.44 0.00 93 1012.5
20220125100124 44 340 0.0 2.0 0.00 0.44 0.00 93 1012.5
20220125094629 44 345 1.0 4.0 0.00 0.44 0.00 93 1012.5
20220125093125 44 313 3.0 8.0 0.00 0.44 0.00 93 1012.4
20220125091715 44 20 0.0 0.0 0.00 0.44 0.00 93 1012.2
20220125090115 44 20 0.0 0.0 0.00 0.44 0.00 93 1012.5
20220125084536 44 20 0.0 0.0 0.00 0.44 0.00 93 1012.4
20220125083033 44 20 0.0 1.0 0.00 0.44 0.00 93 1012.4
20220125081612 44 20 0.0 0.0 0.00 0.44 0.00 93 1012.3
20220125080059 44 20 0.0 0.0 0.00 0.44 0.00 93 1012.0
20220125074548 44 20 0.0 0.0 0.00 0.44 0.00 93 1011.9
20220125073029 44 20 0.0 0.0 0.00 0.44 0.00 93 1011.7
20220125071552 45 20 0.0 0.0 0.00 0.44 0.00 93 1011.6
20220125070035 45 20 0.0 1.0 0.00 0.44 0.00 93 1011.3
20220125064521 46 20 0.0 1.0 0.00 0.44 0.00 93 1011.2
20220125063026 46 20 0.0 2.0 0.00 0.44 0.00 93 1011.1
20220125061515 47 74 0.0 2.0 0.00 0.44 0.00 93 1011.2
20220125060008 47 41 0.0 5.0 0.00 0.44 0.00 93 1011.7
20220125054508 47 355 0.0 4.0 0.00 0.44 0.44 93 1011.7
20220125053017 47 51 0.0 3.0 0.00 0.44 0.44 93 1011.6